SHW753 KSLC-KDEN

Flight info

Callsign SHW753
Flight time N/A
Altitude 20000
Route RUGGD3 PERTY KAMPR LONGZ3
Aircraft B38M/M-SDE1FGHILORVWXY/HB1

Departure

Time 2026-05-07 10:43
Airport Salt Lake City International Airport (KSLC)

Arrival

Time N/A
Airport Denver International Airport (KDEN)
Time Latitude Longitude Altitude Speed Heading
2026-05-07 10:15 40.77734 -111.97817 4235 ft 0 kts 265°
2026-05-07 10:30 40.77735 -111.97801 4235 ft 3 kts 265°
2026-05-07 10:31 40.77738 -111.97762 4234 ft 5 kts 269°
2026-05-07 10:31 40.77739 -111.97750 4234 ft 1 kts 231°
2026-05-07 10:31 40.77745 -111.97742 4234 ft 1 kts 203°
2026-05-07 10:31 40.77748 -111.97740 4234 ft 0 kts 212°
2026-05-07 10:32 40.77750 -111.97739 4232 ft 0 kts 212°
2026-05-07 10:32 40.77753 -111.97737 4231 ft 1 kts 212°
2026-05-07 10:32 40.77756 -111.97734 4232 ft 1 kts 211°
2026-05-07 10:33 40.77760 -111.97730 4232 ft 1 kts 211°
2026-05-07 10:33 40.77764 -111.97727 4234 ft 1 kts 212°
2026-05-07 10:33 40.77767 -111.97724 4233 ft 1 kts 212°
2026-05-07 10:33 40.77770 -111.97722 4234 ft 0 kts 213°
2026-05-07 10:34 40.77773 -111.97720 4234 ft 0 kts 214°
2026-05-07 10:34 40.77771 -111.97720 4234 ft 0 kts 202°
2026-05-07 10:34 40.77768 -111.97719 4234 ft 0 kts 181°
2026-05-07 10:36 40.77767 -111.97718 4234 ft 1 kts 174°
2026-05-07 10:36 40.77759 -111.97707 4235 ft 2 kts 118°
2026-05-07 10:36 40.77766 -111.97692 4234 ft 2 kts 47°
2026-05-07 10:36 40.77773 -111.97691 4235 ft 0 kts
2026-05-07 10:37 40.77774 -111.97691 4235 ft 0 kts 359°
2026-05-07 10:37 40.77794 -111.97693 4235 ft 6 kts 355°
2026-05-07 10:37 40.77861 -111.97695 4235 ft 13 kts
2026-05-07 10:38 40.77981 -111.97678 4231 ft 22 kts 359°
2026-05-07 10:38 40.78157 -111.97695 4230 ft 28 kts 357°
2026-05-07 10:38 40.78343 -111.97637 4231 ft 28 kts 13°
2026-05-07 10:38 40.78540 -111.97657 4235 ft 28 kts 354°
2026-05-07 10:39 40.78736 -111.97679 4238 ft 29 kts 355°
2026-05-07 10:39 40.78942 -111.97702 4240 ft 30 kts 355°
2026-05-07 10:39 40.79157 -111.97729 4235 ft 33 kts 354°
2026-05-07 10:39 40.79397 -111.97755 4233 ft 36 kts 355°
2026-05-07 10:40 40.79656 -111.97784 4232 ft 38 kts 355°
2026-05-07 10:40 40.79918 -111.97815 4237 ft 38 kts 355°
2026-05-07 10:40 40.80181 -111.97846 4241 ft 38 kts 355°
2026-05-07 10:40 40.80449 -111.97879 4240 ft 40 kts 354°
2026-05-07 10:41 40.80622 -111.97862 4238 ft 12 kts 62°
2026-05-07 10:41 40.80629 -111.97827 4237 ft 1 kts 81°
2026-05-07 10:41 40.80632 -111.97800 4237 ft 5 kts 82°
2026-05-07 10:41 40.80635 -111.97736 4236 ft 8 kts 92°
2026-05-07 10:42 40.80615 -111.97684 4236 ft 4 kts 140°
2026-05-07 10:42 40.80594 -111.97676 4238 ft 3 kts 174°
2026-05-07 10:42 40.80406 -111.97653 4241 ft 59 kts 175°
2026-05-07 10:42 40.79787 -111.97584 4235 ft 119 kts 175°
2026-05-07 10:43 40.78788 -111.97464 4239 ft 167 kts 175°
2026-05-07 10:43 40.77492 -111.97311 4307 ft 201 kts 175°
2026-05-07 10:43 40.76071 -111.97146 4915 ft 207 kts 175°
2026-05-07 10:43 40.74627 -111.96980 5730 ft 209 kts 175°
2026-05-07 10:44 40.73680 -111.96875 6280 ft 211 kts 178°
2026-05-07 10:44 40.71788 -111.97883 6721 ft 234 kts 232°
2026-05-07 10:44 40.71157 -111.99712 7809 ft 220 kts 264°
2026-05-07 10:44 40.71376 -112.01714 8393 ft 226 kts 297°
2026-05-07 10:45 40.72179 -112.03521 9078 ft 229 kts 304°
2026-05-07 10:45 40.72862 -112.04580 9510 ft 230 kts 326°
2026-05-07 10:45 40.74340 -112.05329 10115 ft 233 kts 358°
2026-05-07 10:45 40.75973 -112.05209 10699 ft 237 kts
2026-05-07 10:46 40.77625 -112.05060 11324 ft 239 kts
2026-05-07 10:46 40.79294 -112.04896 11918 ft 242 kts
2026-05-07 10:46 40.80981 -112.04728 12493 ft 244 kts
2026-05-07 10:46 40.82664 -112.04560 13038 ft 246 kts
2026-05-07 10:47 40.84378 -112.04389 13579 ft 248 kts
2026-05-07 10:47 40.86016 -112.04225 14066 ft 251 kts
2026-05-07 10:47 40.87775 -112.04049 14577 ft 253 kts
2026-05-07 10:47 40.89537 -112.03873 15058 ft 256 kts
2026-05-07 10:48 40.91322 -112.03694 15517 ft 256 kts
2026-05-07 10:48 40.93106 -112.03515 15981 ft 259 kts
2026-05-07 10:48 40.94909 -112.03335 16415 ft 260 kts
2026-05-07 10:48 40.96725 -112.03153 16846 ft 262 kts
2026-05-07 10:49 40.98527 -112.02943 17251 ft 264 kts 12°
2026-05-07 10:49 41.00164 -112.02164 17603 ft 266 kts 25°
2026-05-07 10:49 41.01929 -112.01352 17744 ft 278 kts 10°
2026-05-07 10:49 41.03806 -112.00493 17824 ft 294 kts 27°
2026-05-07 10:50 41.05444 -111.98802 17938 ft 309 kts 48°
2026-05-07 10:50 41.06837 -111.96534 18023 ft 326 kts 53°
2026-05-07 10:50 41.08101 -111.93954 18124 ft 343 kts 61°
2026-05-07 10:50 41.09206 -111.91069 18215 ft 359 kts 64°
2026-05-07 10:51 41.10285 -111.87999 18301 ft 376 kts 65°
2026-05-07 10:51 41.11387 -111.84768 18378 ft 392 kts 65°
2026-05-07 10:51 41.12525 -111.81402 18647 ft 402 kts 66°
2026-05-07 10:51 41.13660 -111.78019 19253 ft 402 kts 68°
2026-05-07 10:52 41.14301 -111.74410 19704 ft 406 kts 87°
2026-05-07 10:52 41.14011 -111.70679 20109 ft 411 kts 106°
2026-05-07 10:52 41.12840 -111.67282 20520 ft 415 kts 124°
2026-05-07 10:52 41.10980 -111.64322 20967 ft 418 kts 131°
2026-05-07 10:53 41.09050 -111.61424 21438 ft 421 kts 131°
2026-05-07 10:53 41.07100 -111.58509 21941 ft 422 kts 131°
2026-05-07 10:53 41.05145 -111.55591 22421 ft 424 kts 131°
2026-05-07 10:53 41.03176 -111.52654 22786 ft 428 kts 131°
2026-05-07 10:54 41.01196 -111.49702 23258 ft 429 kts 131°
2026-05-07 10:54 40.99229 -111.46768 23640 ft 432 kts 131°
2026-05-07 10:54 40.97236 -111.43797 23989 ft 436 kts 131°
2026-05-07 10:54 40.95192 -111.40750 23996 ft 443 kts 131°
2026-05-07 10:55 40.93158 -111.37712 23989 ft 438 kts 131°
2026-05-07 10:55 40.91147 -111.34696 23990 ft 437 kts 130°
2026-05-07 10:55 40.89478 -111.31341 24002 ft 438 kts 116°
2026-05-07 10:55 40.88431 -111.27554 24007 ft 440 kts 105°
2026-05-07 10:56 40.87761 -111.23608 24008 ft 441 kts 101°
2026-05-07 10:56 40.87227 -111.19616 24006 ft 440 kts 99°
2026-05-07 10:56 40.86739 -111.15628 24007 ft 440 kts 99°
2026-05-07 10:56 40.86268 -111.11613 24009 ft 443 kts 98°
2026-05-07 10:57 40.85805 -111.07583 24011 ft 444 kts 98°
2026-05-07 10:57 40.85345 -111.03550 24009 ft 444 kts 98°
2026-05-07 10:57 40.84886 -110.99514 24011 ft 445 kts 98°
2026-05-07 10:57 40.84429 -110.95478 24008 ft 445 kts 98°
2026-05-07 10:58 40.83977 -110.91487 24008 ft 444 kts 98°
2026-05-07 10:58 40.83516 -110.87408 24007 ft 444 kts 98°
2026-05-07 10:58 40.83062 -110.83377 24007 ft 443 kts 98°
2026-05-07 10:58 40.82615 -110.79406 24007 ft 443 kts 98°
2026-05-07 10:59 40.82162 -110.75378 24006 ft 444 kts 98°
2026-05-07 10:59 40.81719 -110.71339 24007 ft 446 kts 96°
2026-05-07 10:59 40.81474 -110.67262 24009 ft 445 kts 95°
2026-05-07 10:59 40.81134 -110.63195 24006 ft 446 kts 97°
2026-05-07 11:00 40.80728 -110.59122 24014 ft 448 kts 98°
2026-05-07 11:00 40.80298 -110.55069 24006 ft 445 kts 98°
2026-05-07 11:00 40.79855 -110.50999 24007 ft 446 kts 98°
2026-05-07 11:00 40.79410 -110.46938 24007 ft 447 kts 98°
2026-05-07 11:01 40.78964 -110.42879 24008 ft 447 kts 98°
2026-05-07 11:01 40.78516 -110.38810 24008 ft 448 kts 98°
2026-05-07 11:01 40.78068 -110.34736 24008 ft 448 kts 98°
2026-05-07 11:01 40.77622 -110.30674 24007 ft 446 kts 98°
2026-05-07 11:02 40.77179 -110.26630 24007 ft 445 kts 98°
2026-05-07 11:02 40.76735 -110.22580 24008 ft 446 kts 98°
2026-05-07 11:02 40.76293 -110.18539 24009 ft 444 kts 98°
2026-05-07 11:02 40.75858 -110.14550 24006 ft 445 kts 98°
2026-05-07 11:03 40.75416 -110.10486 24009 ft 448 kts 98°
2026-05-07 11:03 40.74975 -110.06431 24007 ft 446 kts 98°
2026-05-07 11:03 40.74536 -110.02376 24008 ft 446 kts 98°
2026-05-07 11:03 40.74100 -109.98344 24007 ft 444 kts 98°
2026-05-07 11:04 40.73663 -109.94299 24007 ft 447 kts 98°
2026-05-07 11:04 40.73226 -109.90239 24011 ft 447 kts 98°
2026-05-07 11:04 40.72791 -109.86188 24008 ft 446 kts 98°
2026-05-07 11:04 40.72400 -109.82134 24008 ft 446 kts 96°
2026-05-07 11:05 40.72108 -109.78057 24008 ft 445 kts 95°
2026-05-07 11:05 40.71861 -109.73994 24008 ft 444 kts 94°
2026-05-07 11:05 40.71634 -109.69933 24008 ft 444 kts 94°
2026-05-07 11:05 40.71415 -109.65884 24008 ft 443 kts 94°
2026-05-07 11:06 40.71201 -109.61834 24008 ft 443 kts 94°
2026-05-07 11:06 40.70989 -109.57788 24008 ft 443 kts 94°
2026-05-07 11:06 40.70777 -109.53738 24008 ft 442 kts 94°
2026-05-07 11:06 40.70567 -109.49700 24008 ft 442 kts 94°
2026-05-07 11:07 40.70358 -109.45663 24008 ft 441 kts 94°
2026-05-07 11:07 40.70150 -109.41624 24009 ft 441 kts 94°
2026-05-07 11:07 40.69943 -109.37598 24011 ft 441 kts 94°
2026-05-07 11:07 40.69738 -109.33571 24008 ft 440 kts 94°
2026-05-07 11:08 40.69533 -109.29542 24008 ft 440 kts 94°
2026-05-07 11:08 40.69329 -109.25519 24008 ft 440 kts 94°
2026-05-07 11:08 40.69129 -109.21547 24008 ft 440 kts 94°
2026-05-07 11:08 40.68927 -109.17525 24008 ft 440 kts 94°
2026-05-07 11:09 40.68726 -109.13494 24008 ft 440 kts 94°
2026-05-07 11:09 40.68526 -109.09473 24009 ft 440 kts 94°
2026-05-07 11:09 40.68354 -109.05454 24008 ft 439 kts 92°
2026-05-07 11:09 40.68248 -109.01431 24008 ft 439 kts 92°
2026-05-07 11:10 40.68164 -108.97943 24009 ft 439 kts 91°
2026-05-07 11:10 40.68072 -108.93911 24009 ft 441 kts 91°
2026-05-07 11:10 40.68035 -108.89876 24010 ft 439 kts 89°
2026-05-07 11:10 40.68093 -108.85862 24009 ft 439 kts 88°
2026-05-07 11:11 40.68192 -108.81845 24008 ft 437 kts 88°
2026-05-07 11:11 40.68307 -108.77850 24008 ft 437 kts 88°
2026-05-07 11:11 40.68429 -108.73839 24008 ft 437 kts 88°
2026-05-07 11:11 40.68556 -108.69846 24008 ft 437 kts 88°
2026-05-07 11:12 40.68685 -108.65831 24008 ft 438 kts 88°
2026-05-07 11:12 40.68813 -108.61874 24008 ft 438 kts 87°
2026-05-07 11:12 40.68944 -108.57858 24008 ft 438 kts 87°
2026-05-07 11:12 40.69078 -108.53791 24008 ft 439 kts 87°
2026-05-07 11:13 40.69211 -108.49773 24013 ft 439 kts 87°
2026-05-07 11:13 40.69343 -108.45811 24009 ft 438 kts 87°
2026-05-07 11:13 40.69478 -108.41807 24009 ft 438 kts 87°
2026-05-07 11:13 40.69613 -108.37795 24009 ft 437 kts 87°
2026-05-07 11:14 40.69749 -108.33787 24009 ft 437 kts 87°
2026-05-07 11:14 40.69887 -108.29782 24009 ft 438 kts 87°
2026-05-07 11:14 40.70025 -108.25781 24009 ft 438 kts 87°
2026-05-07 11:14 40.70164 -108.21772 24009 ft 438 kts 87°
2026-05-07 11:15 40.70299 -108.17889 24009 ft 437 kts 87°
2026-05-07 11:15 40.70440 -108.13876 24009 ft 438 kts 87°
2026-05-07 11:15 40.70582 -108.09873 24009 ft 438 kts 87°
2026-05-07 11:15 40.70725 -108.05860 24009 ft 438 kts 87°
2026-05-07 11:16 40.70869 -108.01845 24009 ft 439 kts 87°
2026-05-07 11:16 40.71014 -107.97824 24010 ft 439 kts 87°
2026-05-07 11:16 40.71161 -107.93796 24009 ft 440 kts 87°
2026-05-07 11:16 40.71308 -107.89779 24009 ft 439 kts 87°
2026-05-07 11:17 40.71456 -107.85744 24009 ft 440 kts 87°
2026-05-07 11:17 40.71605 -107.81722 24009 ft 440 kts 87°
2026-05-07 11:17 40.71754 -107.77741 24009 ft 440 kts 87°
2026-05-07 11:17 40.71905 -107.73716 24009 ft 439 kts 87°
2026-05-07 11:18 40.72057 -107.69685 24008 ft 440 kts 87°
2026-05-07 11:18 40.72211 -107.65650 24008 ft 440 kts 87°
2026-05-07 11:18 40.72365 -107.61622 24009 ft 440 kts 87°
2026-05-07 11:18 40.72494 -107.57598 24009 ft 439 kts 88°
2026-05-07 11:19 40.72578 -107.53576 24009 ft 439 kts 89°
2026-05-07 11:19 40.72644 -107.49548 24008 ft 439 kts 89°
2026-05-07 11:19 40.72702 -107.45524 24008 ft 440 kts 89°
2026-05-07 11:19 40.72759 -107.41480 24009 ft 441 kts 89°
2026-05-07 11:20 40.72815 -107.37446 24008 ft 441 kts 89°
2026-05-07 11:20 40.72872 -107.33392 24009 ft 442 kts 89°
2026-05-07 11:20 40.72928 -107.29345 24009 ft 442 kts 89°
2026-05-07 11:20 40.72986 -107.25309 23685 ft 437 kts 89°
2026-05-07 11:21 40.73043 -107.21346 22904 ft 438 kts 89°
2026-05-07 11:21 40.73102 -107.17305 22338 ft 432 kts 89°
2026-05-07 11:21 40.73160 -107.13413 21720 ft 428 kts 89°
2026-05-07 11:21 40.73219 -107.09512 21092 ft 424 kts 89°
2026-05-07 11:22 40.73278 -107.05635 20449 ft 421 kts 89°
2026-05-07 11:22 40.73339 -107.01741 19802 ft 418 kts 89°
2026-05-07 11:22 40.73399 -106.97978 19250 ft 413 kts 89°
2026-05-07 11:22 40.73461 -106.94221 18660 ft 408 kts 89°
2026-05-07 11:23 40.73522 -106.90489 18093 ft 403 kts 89°
2026-05-07 11:23 40.73583 -106.86852 18001 ft 392 kts 89°
2026-05-07 11:23 40.73645 -106.83211 18002 ft 403 kts 89°
2026-05-07 11:23 40.73709 -106.79487 18011 ft 405 kts 89°
2026-05-07 11:24 40.73773 -106.75786 18007 ft 404 kts 89°
2026-05-07 11:24 40.73839 -106.72077 18012 ft 407 kts 89°
2026-05-07 11:24 40.73905 -106.68343 18008 ft 407 kts 89°
2026-05-07 11:24 40.73973 -106.64596 18012 ft 409 kts 89°
2026-05-07 11:25 40.74042 -106.60844 18008 ft 408 kts 89°
2026-05-07 11:25 40.74111 -106.57148 18006 ft 404 kts 88°
2026-05-07 11:25 40.74181 -106.53418 17997 ft 405 kts 88°
2026-05-07 11:25 40.74252 -106.49708 18006 ft 404 kts 88°
2026-05-07 11:26 40.74323 -106.46007 18004 ft 404 kts 88°
2026-05-07 11:26 40.74395 -106.42314 18001 ft 403 kts 88°
2026-05-07 11:26 40.74469 -106.38605 17998 ft 403 kts 88°
2026-05-07 11:26 40.74543 -106.34904 17998 ft 403 kts 88°
2026-05-07 11:27 40.74618 -106.31207 18006 ft 403 kts 88°
2026-05-07 11:27 40.74693 -106.27505 18002 ft 403 kts 88°
2026-05-07 11:27 40.74770 -106.23816 18006 ft 403 kts 88°
2026-05-07 11:27 40.74848 -106.20113 18006 ft 404 kts 88°
2026-05-07 11:28 40.74926 -106.16407 17995 ft 404 kts 88°
2026-05-07 11:28 40.75005 -106.12764 18006 ft 403 kts 88°
2026-05-07 11:28 40.75085 -106.09065 17996 ft 403 kts 88°
2026-05-07 11:28 40.75166 -106.05368 18006 ft 404 kts 88°
2026-05-07 11:29 40.75248 -106.01654 18007 ft 407 kts 88°
2026-05-07 11:29 40.75333 -105.97910 18006 ft 407 kts 88°
2026-05-07 11:29 40.75381 -105.94173 18007 ft 407 kts 94°
2026-05-07 11:29 40.74860 -105.90525 18008 ft 406 kts 107°
2026-05-07 11:30 40.73909 -105.87021 18008 ft 404 kts 112°
2026-05-07 11:30 40.73188 -105.84757 18014 ft 405 kts 114°
2026-05-07 11:30 40.72038 -105.81357 18012 ft 406 kts 114°
2026-05-07 11:30 40.70864 -105.77985 17546 ft 404 kts 115°
2026-05-07 11:31 40.69685 -105.74637 17194 ft 400 kts 115°
2026-05-07 11:31 40.68512 -105.71320 16726 ft 399 kts 115°
2026-05-07 11:31 40.67345 -105.68019 16328 ft 396 kts 115°
2026-05-07 11:31 40.66184 -105.64737 15892 ft 394 kts 115°
2026-05-07 11:32 40.63900 -105.58280 15093 ft 389 kts 115°
2026-05-07 11:32 40.62774 -105.55092 15004 ft 381 kts 115°
2026-05-07 11:32 40.61649 -105.51908 15011 ft 386 kts 115°
2026-05-07 11:33 40.60518 -105.48703 15011 ft 387 kts 115°
2026-05-07 11:33 40.59382 -105.45486 15010 ft 388 kts 115°
2026-05-07 11:33 40.58251 -105.42274 15006 ft 386 kts 115°
2026-05-07 11:33 40.57121 -105.39068 15008 ft 385 kts 115°
2026-05-07 11:34 40.55996 -105.35871 15009 ft 385 kts 115°
2026-05-07 11:34 40.54869 -105.32668 15010 ft 385 kts 115°
2026-05-07 11:34 40.53749 -105.29482 15010 ft 384 kts 115°
2026-05-07 11:34 40.52630 -105.26297 15007 ft 383 kts 115°
2026-05-07 11:35 40.51519 -105.23135 15008 ft 382 kts 115°
2026-05-07 11:35 40.50401 -105.19949 15008 ft 383 kts 115°
2026-05-07 11:35 40.49286 -105.16770 15008 ft 383 kts 115°
2026-05-07 11:35 40.48172 -105.13591 15010 ft 382 kts 115°
2026-05-07 11:36 40.47061 -105.10420 15008 ft 382 kts 115°
2026-05-07 11:36 40.45966 -105.07293 14982 ft 380 kts 115°
2026-05-07 11:36 40.44880 -105.04188 14960 ft 368 kts 115°
2026-05-07 11:36 40.43828 -105.01176 14937 ft 357 kts 115°
2026-05-07 11:37 40.42799 -104.98231 14661 ft 355 kts 115°
2026-05-07 11:37 40.41771 -104.95286 14372 ft 353 kts 115°
2026-05-07 11:37 40.40752 -104.92361 14085 ft 352 kts 115°
2026-05-07 11:37 40.39608 -104.89545 13804 ft 350 kts 128°
2026-05-07 11:38 40.37909 -104.87278 13513 ft 348 kts 140°
2026-05-07 11:38 40.35957 -104.85407 13232 ft 347 kts 145°
2026-05-07 11:38 40.34001 -104.83627 13175 ft 338 kts 146°
2026-05-07 11:38 40.32090 -104.81895 13162 ft 329 kts 146°
2026-05-07 11:39 40.30250 -104.80227 13134 ft 322 kts 146°
2026-05-07 11:39 40.28411 -104.78560 12909 ft 321 kts 146°
2026-05-07 11:39 40.26585 -104.76906 12701 ft 320 kts 146°
2026-05-07 11:39 40.24749 -104.75243 12488 ft 319 kts 146°